When you browse on this site, cookies collect data to enhance your experience and personalize the content and advertising you see.
Visit our Privacy Policy to learn more. By continuing to use the site, you agree to this use of cookies and data.
  • In Slovakia
  • List of Countries
  • For 7 days
  • Water Temperature
  • Weather Map
  • Weather Widgets
  • user-avatar
    Login

    Hourly Weather Rzepiski

    Today, 28 May, Thursday

    Time Temperature Precipitation Wind Pressure Humidity
    00:00 +9°C° 0 mm 2 mps 757 mmHg 92%
    01:00 +8°C° 0 mm 2 mps 757 mmHg 91%
    02:00 +8°C° 0 mm 2 mps 756 mmHg 91%
    03:00 +8°C° 0 mm 2 mps 756 mmHg 90%
    04:00 +8°C° 0 mm 2 mps 756 mmHg 89%
    05:00 +8°C° 0 mm 2 mps 756 mmHg 89%
    06:00 +10°C° 0 mm 2 mps 756 mmHg 83%
    07:00 +13°C° 0 mm 2 mps 756 mmHg 78%
    08:00 +15°C° 0 mm 2 mps 756 mmHg 72%
    09:00 +16°C° 0 mm 3 mps 756 mmHg 69%
    10:00 +17°C° 0 mm 3 mps 756 mmHg 65%
    11:00 +18°C° 0 mm 3 mps 756 mmHg 62%
    12:00 +18°C° 0 mm 3 mps 755 mmHg 59%
    13:00 +19°C° 0 mm 3 mps 755 mmHg 57%
    14:00 +19°C° 0 mm 3 mps 755 mmHg 55%
    15:00 +19°C° 0.1 mm 3 mps 754 mmHg 58%
    16:00 +19°C° 0.1 mm 3 mps 754 mmHg 60%
    17:00 +18°C° 0.1 mm 4 mps 754 mmHg 63%
    18:00 +17°C° 0.2 mm 4 mps 754 mmHg 70%
    19:00 +15°C° 0.2 mm 4 mps 754 mmHg 77%
    20:00 +13°C° 0.2 mm 4 mps 754 mmHg 84%
    21:00 +12°C° 0 mm 5 mps 754 mmHg 83%
    22:00 +10°C° 0 mm 5 mps 754 mmHg 83%
    23:00 +9°C° 0 mm 5 mps 754 mmHg 82%

    Tomorrow, 29 May, Friday

    Time Temperature Precipitation Wind Pressure Humidity
    00:00 +8°C° 0 mm 5 mps 754 mmHg 82%
    01:00 +8°C° 0 mm 5 mps 754 mmHg 81%
    02:00 +7°C° 0 mm 5 mps 754 mmHg 80%
    03:00 +6°C° 0 mm 5 mps 754 mmHg 81%
    04:00 +6°C° 0 mm 5 mps 754 mmHg 82%
    05:00 +5°C° 0 mm 5 mps 754 mmHg 83%
    06:00 +7°C° 0 mm 6 mps 754 mmHg 80%
    07:00 +8°C° 0 mm 6 mps 754 mmHg 77%
    08:00 +10°C° 0 mm 6 mps 754 mmHg 74%
    09:00 +11°C° 0 mm 7 mps 754 mmHg 70%
    10:00 +14°C° 0 mm 7 mps 754 mmHg 65%
    11:00 +15°C° 0 mm 8 mps 754 mmHg 60%
    12:00 +15°C° 0.1 mm 8 mps 753 mmHg 60%
    13:00 +16°C° 0.1 mm 8 mps 753 mmHg 59%
    14:00 +16°C° 0.1 mm 7 mps 753 mmHg 58%
    15:00 +16°C° 0.1 mm 7 mps 753 mmHg 62%
    16:00 +15°C° 0.1 mm 6 mps 752 mmHg 65%
    17:00 +15°C° 0.1 mm 5 mps 752 mmHg 68%
    18:00 +14°C° 0.1 mm 6 mps 752 mmHg 71%
    19:00 +13°C° 0.1 mm 6 mps 752 mmHg 74%
    20:00 +11°C° 0.1 mm 6 mps 751 mmHg 77%
    21:00 +11°C° 0 mm 6 mps 751 mmHg 75%
    22:00 +10°C° 0 mm 6 mps 751 mmHg 73%
    23:00 +10°C° 0 mm 6 mps 751 mmHg 72%

    Day after tomorrow, 30 May, Saturday

    Time Temperature Precipitation Wind Pressure Humidity
    00:00 +10°C° 0 mm 6 mps 751 mmHg 72%
    01:00 +10°C° 0 mm 7 mps 751 mmHg 72%
    02:00 +9°C° 0 mm 7 mps 750 mmHg 72%
    03:00 +9°C° 0.1 mm 7 mps 750 mmHg 76%
    04:00 +9°C° 0.1 mm 7 mps 750 mmHg 80%
    05:00 +8°C° 0.1 mm 7 mps 750 mmHg 84%
    06:00 +9°C° 0.1 mm 7 mps 750 mmHg 82%
    07:00 +10°C° 0.1 mm 7 mps 750 mmHg 80%
    08:00 +10°C° 0.1 mm 7 mps 750 mmHg 77%
    09:00 +11°C° 0 mm 7 mps 749 mmHg 75%
    10:00 +12°C° 0 mm 7 mps 749 mmHg 73%
    11:00 +14°C° 0 mm 7 mps 749 mmHg 71%
    12:00 +14°C° 0.3 mm 7 mps 749 mmHg 76%
    13:00 +12°C° 0.3 mm 7 mps 749 mmHg 82%
    14:00 +12°C° 0.3 mm 7 mps 749 mmHg 87%
    15:00 +12°C° 2.3 mm 7 mps 749 mmHg 90%
    16:00 +13°C° 2.3 mm 6 mps 748 mmHg 92%
    17:00 +11°C° 2.3 mm 6 mps 748 mmHg 95%
    18:00 +13°C° 1.1 mm 6 mps 748 mmHg 94%
    19:00 +13°C° 1.1 mm 5 mps 748 mmHg 93%
    20:00 +14°C° 1.1 mm 5 mps 748 mmHg 91%
    21:00 +13°C° 0.4 mm 5 mps 748 mmHg 90%
    22:00 +13°C° 0.4 mm 5 mps 748 mmHg 90%
    23:00 +11°C° 0.4 mm 6 mps 748 mmHg 89%

    31 May, Sunday

    Time Temperature Precipitation Wind Pressure Humidity
    00:00 +11°C° 0 mm 6 mps 748 mmHg 86%
    01:00 +11°C° 0 mm 6 mps 748 mmHg 83%
    02:00 +11°C° 0 mm 7 mps 748 mmHg 80%
    03:00 +11°C° 0 mm 7 mps 748 mmHg 79%
    04:00 +11°C° 0 mm 7 mps 748 mmHg 79%
    05:00 +10°C° 0 mm 7 mps 748 mmHg 78%
    06:00 +12°C° 0 mm 7 mps 748 mmHg 77%
    07:00 +14°C° 0 mm 7 mps 749 mmHg 75%
    08:00 +15°C° 0 mm 8 mps 749 mmHg 74%
    09:00 +16°C° 0 mm 8 mps 749 mmHg 73%
    10:00 +17°C° 0 mm 8 mps 749 mmHg 71%
    11:00 +18°C° 0 mm 8 mps 750 mmHg 69%
    12:00 +20°C° 0 mm 8 mps 750 mmHg 68%
    13:00 +20°C° 0 mm 8 mps 750 mmHg 67%
    14:00 +21°C° 0 mm 7 mps 750 mmHg 66%
    15:00 +20°C° 0 mm 7 mps 750 mmHg 68%
    16:00 +20°C° 0 mm 6 mps 751 mmHg 70%
    17:00 +19°C° 0 mm 5 mps 751 mmHg 72%
    18:00 +19°C° 0 mm 5 mps 751 mmHg 73%
    19:00 +18°C° 0 mm 4 mps 751 mmHg 75%
    20:00 +17°C° 0 mm 4 mps 752 mmHg 77%
    21:00 +15°C° 0 mm 4 mps 752 mmHg 77%
    22:00 +14°C° 0 mm 4 mps 753 mmHg 77%
    23:00 +13°C° 0 mm 4 mps 753 mmHg 78%

    1 June, Monday

    Time Temperature Precipitation Wind Pressure Humidity
    00:00 +12°C° 0 mm 4 mps 753 mmHg 79%
    01:00 +12°C° 0 mm 4 mps 754 mmHg 80%
    02:00 +11°C° 0 mm 4 mps 754 mmHg 81%
    03:00 +11°C° 0 mm 4 mps 754 mmHg 82%
    04:00 +10°C° 0 mm 4 mps 754 mmHg 83%
    05:00 +10°C° 0 mm 4 mps 754 mmHg 84%
    06:00 +12°C° 0 mm 4 mps 754 mmHg 79%
    07:00 +13°C° 0 mm 4 mps 754 mmHg 75%
    08:00 +15°C° 0 mm 5 mps 755 mmHg 70%
    09:00 +16°C° 0 mm 5 mps 755 mmHg 66%
    10:00 +17°C° 0 mm 5 mps 755 mmHg 61%
    11:00 +20°C° 0 mm 6 mps 755 mmHg 57%
    12:00 +20°C° 0 mm 6 mps 755 mmHg 56%
    13:00 +20°C° 0 mm 6 mps 755 mmHg 56%
    14:00 +21°C° 0 mm 6 mps 755 mmHg 55%
    15:00 +21°C° 0 mm 6 mps 755 mmHg 57%
    16:00 +20°C° 0 mm 5 mps 754 mmHg 59%
    17:00 +20°C° 0 mm 5 mps 754 mmHg 61%
    18:00 +19°C° 0 mm 4 mps 754 mmHg 66%
    19:00 +18°C° 0 mm 4 mps 754 mmHg 71%
    20:00 +16°C° 0 mm 3 mps 754 mmHg 76%
    21:00 +14°C° 0 mm 3 mps 754 mmHg 80%
    22:00 +13°C° 0 mm 3 mps 755 mmHg 83%
    23:00 +13°C° 0 mm 2 mps 755 mmHg 87%

    2 June, Tuesday

    Time Temperature Precipitation Wind Pressure Humidity
    00:00 +13°C° 0 mm 2 mps 755 mmHg 88%
    01:00 +12°C° 0 mm 2 mps 755 mmHg 90%
    02:00 +12°C° 0 mm 2 mps 755 mmHg 91%
    03:00 +12°C° 0 mm 2 mps 755 mmHg 92%
    04:00 +10°C° 0 mm 2 mps 755 mmHg 93%
    05:00 +10°C° 0 mm 2 mps 755 mmHg 94%
    06:00 +12°C° 0 mm 3 mps 755 mmHg 87%
    07:00 +14°C° 0 mm 3 mps 755 mmHg 80%
    08:00 +17°C° 0 mm 3 mps 755 mmHg 73%
    09:00 +18°C° 0 mm 3 mps 755 mmHg 68%
    10:00 +19°C° 0 mm 3 mps 755 mmHg 63%
    11:00 +21°C° 0 mm 4 mps 755 mmHg 58%
    12:00 +21°C° 0 mm 3 mps 755 mmHg 58%
    13:00 +21°C° 0 mm 3 mps 754 mmHg 58%
    14:00 +22°C° 0 mm 3 mps 754 mmHg 57%
    15:00 +22°C° 0.1 mm 3 mps 754 mmHg 59%
    16:00 +22°C° 0.1 mm 3 mps 754 mmHg 60%
    17:00 +22°C° 0.1 mm 3 mps 753 mmHg 62%
    18:00 +20°C° 0.1 mm 3 mps 753 mmHg 68%
    19:00 +19°C° 0.1 mm 2 mps 753 mmHg 74%
    20:00 +18°C° 0.1 mm 2 mps 753 mmHg 80%
    21:00 +17°C° 0 mm 2 mps 753 mmHg 83%
    22:00 +15°C° 0 mm 1 mps 753 mmHg 87%
    23:00 +14°C° 0 mm 1 mps 753 mmHg 90%
    Show more